DW8305 Weather Reports


Display with metric or nautical units.
time (UTC)temp
F
wind
direction
speed
MPH
gust
MPH
rain 1hr
in
rain 24hr
in
rain mn
in
humidity
%
barometer
mb
20240714113417 72 270 6.0 8.0 0.00 0.00 0.00 56 1013.8
20240714112436 72 180 5.0 8.0 0.00 0.00 0.00 58 1013.9
20240714111417 71 203 4.0 8.0 0.00 0.00 0.00 57 1013.9
20240714110437 70 248 7.0 11.0 0.00 0.00 0.00 58 1014.1
20240714105416 70 248 4.0 6.0 0.00 0.00 0.00 57 1014.1
20240714104416 71 270 5.0 17.0 0.00 0.00 0.00 59 1014.1
20240714103416 70 270 7.0 9.0 0.00 0.00 0.00 58 1014.2
20240714102416 70 270 4.0 6.0 0.00 0.00 0.00 58 1014.3
20240714101417 70 203 5.0 7.0 0.00 0.00 0.00 58 1014.4
20240714100417 70 225 5.0 7.0 0.00 0.00 0.00 58 1014.4
20240714095417 69 270 4.0 6.0 0.00 0.00 0.00 59 1014.5
20240714094456 69 203 3.0 5.0 0.00 0.00 0.00 61 1014.5
20240714093416 69 225 7.0 11.0 0.00 0.00 0.00 61 1014.5
20240714092416 68 270 3.0 5.0 0.00 0.00 0.00 62 1014.5
20240714091416 68 225 1.0 2.0 0.00 0.00 0.00 64 1014.4
20240714090416 67 225 4.0 6.0 0.00 0.00 0.00 63 1014.5
20240714085416 68 225 4.0 8.0 0.00 0.00 0.00 63 1014.5
20240714084457 67 113 2.0 3.0 0.00 0.00 0.00 62 1014.6
20240714083436 66 248 7.0 10.0 0.00 0.00 0.00 64 1014.6
20240714082416 66 248 4.0 5.0 0.00 0.00 0.00 65 1014.6
20240714081436 66 225 4.0 6.0 0.00 0.00 0.00 68 1014.7
20240714080416 65 225 3.0 6.0 0.00 0.00 0.00 69 1014.7
20240714075416 64 225 3.0 5.0 0.00 0.00 0.00 70 1014.7
20240714074416 64 225 4.0 7.0 0.00 0.00 0.00 70 1014.8
20240714073416 64 248 5.0 7.0 0.00 0.00 0.00 70 1014.8
20240714072456 63 270 4.0 6.0 0.00 0.00 0.00 74 1014.7
20240714071437 63 270 5.0 8.0 0.00 0.00 0.00 74 1014.6
20240714070416 63 293 6.0 8.0 0.00 0.00 0.00 74 1014.7
20240714065436 63 270 3.0 5.0 0.00 0.00 0.00 76 1014.8
20240714064436 62 203 8.0 11.0 0.00 0.00 0.00 77 1014.8
20240714063416 61 270 5.0 8.0 0.00 0.00 0.00 81 1014.7
20240714062416 61 225 4.0 7.0 0.00 0.00 0.00 83 1014.6
20240714061436 60 248 3.0 5.0 0.00 0.00 0.00 84 1014.5
20240714060436 60 248 3.0 5.0 0.00 0.00 0.00 86 1014.5
20240714055436 59 248 4.0 6.0 0.00 0.00 0.00 87 1014.6
20240714054416 59 248 5.0 9.0 0.00 0.00 0.00 87 1014.6
20240714053416 58 0.0 1.0 0.00 0.00 0.00 88 1014.7
20240714052416 58 270 2.0 4.0 0.00 0.00 0.00 88 1014.7
20240714051416 58 225 2.0 2.0 0.00 0.00 0.00 89 1014.8
20240714050416 58 225 2.0 3.0 0.00 0.00 0.00 90 1014.8
20240714045417 57 0.0 1.0 0.00 0.00 0.00 92 1014.7
20240714044437 56 0.0 0.0 0.00 0.00 0.00 95 1014.7
20240714043416 54 135 1.0 1.0 0.00 0.00 0.00 96 1014.6
20240714042417 54 0.0 0.0 0.00 0.00 0.00 97 1014.7
20240714041436 53 0.0 0.0 0.00 0.00 0.00 97 1014.6
20240714040416 52 0.0 0.0 0.00 0.00 0.00 97 1014.5
20240714035416 52 0.0 0.0 0.00 0.00 0.00 97 1014.4
20240714034416 52 0.0 0.0 0.00 0.00 0.00 97 1014.2
20240714033416 52 0.0 0.0 0.00 0.00 0.00 97 1014.2
20240714032416 51 0.0 0.0 0.00 0.00 0.00 97 1014.1
20240714031416 52 113 1.0 2.0 0.00 0.00 0.00 97 1014.1
20240714030416 52 0.0 0.0 0.00 0.00 0.00 97 1014.1
20240714025516 52 0.0 0.0 0.00 0.00 0.00 96 1014.1
20240714024416 52 0.0 0.0 0.00 0.00 0.00 97 1014.1
20240714023436 52 0.0 0.0 0.00 0.00 0.00 97 1014.1
20240714022416 52 0.0 0.0 0.00 0.00 0.00 97 1014.1
20240714021416 52 0.0 0.0 0.00 0.00 0.00 96 1014.1
20240714020416 52 0.0 0.0 0.00 0.00 0.00 96 1014.1
20240714015416 53 0.0 0.0 0.00 0.00 0.00 96 1014.1
20240714014416 53 0.0 1.0 0.00 0.00 0.00 96 1014.1
20240714013416 53 0.0 0.0 0.00 0.00 0.00 96 1014.0
20240714012416 53 0.0 1.0 0.00 0.00 0.00 95 1014.0
20240714011416 53 135 1.0 1.0 0.00 0.00 0.00 95 1014.0
20240714010416 54 0.0 1.0 0.00 0.00 0.00 94 1014.0
20240714005416 54 0.0 1.0 0.00 0.00 0.00 94 1014.0
20240714004416 54 0.0 0.0 0.00 0.00 0.00 92 1014.0
20240714003416 55 0.0 0.0 0.00 0.00 0.00 92 1014.0
20240714002416 55 0.0 1.0 0.00 0.00 0.00 90 1014.1
20240714001436 56 0.0 0.0 0.00 0.00 0.00 89 1014.1
20240714000417 57 0.0 0.0 0.00 0.00 0.00 88 1014.1
20240713235416 57 225 1.0 2.0 0.00 0.00 0.00 88 1014.1
20240713234416 57 225 3.0 5.0 0.00 0.00 0.00 88 1014.1
20240713233416 58 225 3.0 4.0 0.00 0.00 0.00 88 1014.1
20240713232416 58 225 3.0 4.0 0.00 0.00 0.00 88 1014.2
20240713231416 58 225 3.0 3.0 0.00 0.00 0.00 87 1014.4
20240713230416 58 225 1.0 3.0 0.00 0.00 0.00 87 1014.4
20240713225416 58 203 2.0 3.0 0.00 0.00 0.00 87 1014.4
20240713224436 58 225 3.0 4.0 0.00 0.00 0.00 87 1014.3
20240713223436 58 225 1.0 2.0 0.00 0.00 0.00 88 1014.3
20240713222416 57 248 1.0 2.0 0.00 0.00 0.00 88 1014.2
20240713221416 57 0.0 1.0 0.00 0.00 0.00 88 1014.3
20240713220416 57 0.0 0.0 0.00 0.00 0.00 87 1014.3
20240713215417 57 0.0 1.0 0.00 0.00 0.00 87 1014.2
20240713214417 58 0.0 0.0 0.00 0.00 0.00 86 1014.1
20240713213416 58 225 2.0 2.0 0.00 0.00 0.00 85 1014.1
20240713212417 58 225 1.0 1.0 0.00 0.00 0.00 84 1014.1
20240713211416 59 0.0 0.0 0.00 0.00 0.00 82 1014.1
20240713210417 59 0.0 0.0 0.00 0.00 0.00 81 1014.1
20240713205417 60 248 1.0 1.0 0.00 0.00 0.00 80 1014.0
20240713204417 60 0.0 1.0 0.00 0.00 0.00 79 1014.0
20240713203417 60 0.0 1.0 0.00 0.00 0.00 78 1013.9
20240713202437 60 248 1.0 2.0 0.00 0.00 0.00 78 1014.0
20240713201417 61 0.0 1.0 0.00 0.00 0.00 77 1014.0
20240713200417 61 0.0 1.0 0.00 0.00 0.00 77 1013.9
20240713195437 61 270 1.0 2.0 0.00 0.00 0.00 76 1014.0
20240713194416 62 270 1.0 2.0 0.00 0.00 0.00 75 1013.8
20240713193437 62 270 2.0 4.0 0.00 0.00 0.00 75 1013.8
20240713192416 63 270 3.0 5.0 0.00 0.00 0.00 74 1013.8
20240713191417 63 270 2.0 3.0 0.00 0.00 0.00 75 1013.8
20240713190416 63 270 1.0 2.0 0.00 0.00 0.00 74 1013.7
20240713185417 64 225 4.0 8.0 0.00 0.01 0.00 73 1013.7
20240713184417 65 270 2.0 3.0 0.00 0.01 0.00 72 1013.6
20240713183417 65 270 5.0 6.0 0.00 0.01 0.00 70 1013.7
20240713182437 66 270 7.0 9.0 0.00 0.01 0.00 68 1013.5
20240713181417 66 248 3.0 5.0 0.00 0.01 0.00 68 1013.5
20240713180417 66 225 5.0 8.0 0.00 0.01 0.00 68 1013.5
20240713175436 66 270 3.0 4.0 0.00 0.01 0.00 67 1013.3
20240713174417 66 248 5.0 6.0 0.00 0.01 0.00 67 1013.3
20240713173417 66 248 5.0 9.0 0.00 0.01 0.00 67 1013.3
20240713172416 66 248 5.0 11.0 0.00 0.01 0.00 68 1013.3
20240713171417 66 248 3.0 3.0 0.00 0.01 0.00 67 1013.3
20240713170417 66 248 5.0 8.0 0.00 0.01 0.00 68 1013.3
20240713165417 67 270 4.0 6.0 0.00 0.72 0.00 68 1013.2
20240713164416 67 293 3.0 5.0 0.00 0.72 0.00 69 1013.3
20240713163417 66 270 5.0 7.0 0.00 0.72 0.00 69 1013.3
20240713162436 66 225 8.0 12.0 0.00 0.72 0.00 69 1013.3
20240713161417 66 248 5.0 8.0 0.00 0.72 0.00 69 1013.2
20240713160416 66 203 5.0 10.0 0.00 0.72 0.00 69 1013.1
20240713155417 66 270 7.0 12.0 0.00 0.72 0.00 69 1013.1
20240713154417 66 225 3.0 5.0 0.00 0.72 0.00 70 1013.1
20240713153417 66 225 7.0 10.0 0.00 0.72 0.00 69 1012.9
20240713152417 65 270 6.0 13.0 0.00 0.72 0.00 72 1013.0
20240713151417 66 270 4.0 6.0 0.00 0.72 0.00 70 1012.9
20240713150416 66 248 7.0 14.0 0.00 0.72 0.00 69 1013.0
20240713145437 65 225 3.0 5.0 0.00 0.72 0.00 71 1012.8
20240713144416 66 225 6.0 8.0 0.00 0.72 0.00 70 1012.8
20240713143416 66 225 9.0 14.0 0.00 0.72 0.00 69 1012.8
20240713142417 66 225 6.0 8.0 0.00 0.72 0.00 69 1012.8
20240713141416 66 225 6.0 12.0 0.00 0.72 0.00 70 1012.8
20240713140417 66 248 5.0 10.0 0.00 0.72 0.00 70 1012.8
20240713135417 66 270 4.0 10.0 0.00 0.72 0.00 70 1012.7
20240713134416 66 248 6.0 12.0 0.00 0.72 0.00 69 1012.8
20240713133457 66 270 4.0 6.0 0.00 0.72 0.00 70 1012.7
20240713132417 65 270 4.0 6.0 0.00 0.72 0.00 70 1012.7
20240713131437 65 248 4.0 7.0 0.00 0.72 0.00 69 1012.8
20240713130437 65 225 6.0 9.0 0.00 0.72 0.00 69 1012.8
20240713125416 65 225 5.0 9.0 0.00 0.72 0.00 69 1012.7
20240713124417 65 225 5.0 8.0 0.00 0.72 0.00 70 1012.7
20240713123416 65 248 4.0 7.0 0.00 0.72 0.00 70 1012.6
20240713122416 65 270 11.0 15.0 0.00 0.72 0.00 69 1012.6
20240713120417 66 270 7.0 11.0 0.00 0.72 0.00 69 1012.5
20240713115416 65 225 6.0 11.0 0.00 0.72 0.00 70 1012.5
20240713114417 65 270 3.0 6.0 0.00 0.72 0.00 72 1012.5